Year,Month,Day,Hour,Minute,Value (Times are PST for temperature in C)
2011,10,19,00,00,8.10
2011,10,19,00,01,8.10
2011,10,19,00,02,8.10
2011,10,19,00,03,8.10
2011,10,19,00,04,8.10
2011,10,19,00,05,8.10
2011,10,19,00,06,8.10
2011,10,19,00,07,8.10
2011,10,19,00,08,8.10
2011,10,19,00,09,8.10
2011,10,19,00,10,8.10
2011,10,19,00,11,8.10
2011,10,19,00,12,8.10
2011,10,19,00,13,8.10
2011,10,19,00,14,8.10
2011,10,19,00,15,8.10
2011,10,19,00,16,8.10
2011,10,19,00,17,8.10
2011,10,19,00,18,8.10
2011,10,19,00,19,8.10
2011,10,19,00,20,8.20
2011,10,19,00,21,8.20
2011,10,19,00,22,8.20
2011,10,19,00,23,8.20
2011,10,19,00,24,8.20
2011,10,19,00,25,8.10
2011,10,19,00,26,8.10
2011,10,19,00,27,8.10
2011,10,19,00,28,8.10
2011,10,19,00,29,8.10
2011,10,19,00,30,8.10
2011,10,19,00,31,8.20
2011,10,19,00,32,8.20
2011,10,19,00,33,8.20
2011,10,19,00,34,8.20
2011,10,19,00,35,8.20
2011,10,19,00,36,8.20
2011,10,19,00,37,8.20
2011,10,19,00,38,8.20
2011,10,19,00,39,8.20
2011,10,19,00,40,8.20
2011,10,19,00,41,8.20
2011,10,19,00,42,8.20
2011,10,19,00,43,8.20
2011,10,19,00,44,8.20
2011,10,19,00,45,8.20
2011,10,19,00,46,8.20
2011,10,19,00,47,8.20
2011,10,19,00,48,8.20
2011,10,19,00,49,8.20
2011,10,19,00,50,8.20
2011,10,19,00,51,8.20
2011,10,19,00,52,8.20
2011,10,19,00,53,8.10
2011,10,19,00,54,8.20
2011,10,19,00,55,8.10
2011,10,19,00,56,8.10
2011,10,19,00,57,8.10
2011,10,19,00,58,8.10
2011,10,19,00,59,8.10
2011,10,19,01,00,8.10
2011,10,19,01,01,8.20
2011,10,19,01,02,8.20
2011,10,19,01,03,8.20
2011,10,19,01,04,8.10
2011,10,19,01,05,8.10
2011,10,19,01,06,8.10
2011,10,19,01,07,8.10
2011,10,19,01,08,8.10
2011,10,19,01,09,8.10
2011,10,19,01,10,8.10
2011,10,19,01,11,8.10
2011,10,19,01,12,8.10
2011,10,19,01,13,8.10
2011,10,19,01,14,8.10
2011,10,19,01,15,8.10
2011,10,19,01,16,8.10
2011,10,19,01,17,8.10
2011,10,19,01,18,8.10
2011,10,19,01,19,8.10
2011,10,19,01,20,8.10
2011,10,19,01,21,8.10
2011,10,19,01,22,8.10
2011,10,19,01,23,8.20
2011,10,19,01,24,8.20
2011,10,19,01,25,8.20
2011,10,19,01,26,8.20
2011,10,19,01,27,8.10
2011,10,19,01,28,8.10
2011,10,19,01,29,8.10
2011,10,19,01,30,8.10
2011,10,19,01,31,8.10
2011,10,19,01,32,8.10
2011,10,19,01,33,8.10
2011,10,19,01,34,8.10
2011,10,19,01,35,8.10
2011,10,19,01,36,8.10
2011,10,19,01,37,8.10
2011,10,19,01,38,8.10
2011,10,19,01,39,8.10
2011,10,19,01,40,8.10
2011,10,19,01,41,8.10
2011,10,19,01,42,8.10
2011,10,19,01,43,8.20
2011,10,19,01,44,8.20
2011,10,19,01,45,8.20
2011,10,19,01,46,8.20
2011,10,19,01,47,8.20
2011,10,19,01,48,8.20
2011,10,19,01,49,8.20
2011,10,19,01,50,8.20
2011,10,19,01,51,8.20
2011,10,19,01,52,8.20
2011,10,19,01,53,8.20
2011,10,19,01,54,8.20
2011,10,19,01,55,8.20
2011,10,19,01,56,8.20
2011,10,19,01,57,8.20
2011,10,19,01,58,8.20
2011,10,19,01,59,8.20
2011,10,19,02,00,8.20
2011,10,19,02,01,8.20
2011,10,19,02,02,8.20
2011,10,19,02,03,8.20
2011,10,19,02,04,8.20
2011,10,19,02,05,8.20
2011,10,19,02,06,8.20
2011,10,19,02,07,8.20
2011,10,19,02,08,8.20
2011,10,19,02,09,8.10
2011,10,19,02,10,8.10
2011,10,19,02,11,8.10
2011,10,19,02,12,8.10
2011,10,19,02,13,8.10
2011,10,19,02,14,8.10
2011,10,19,02,15,8.10
2011,10,19,02,16,8.10
2011,10,19,02,17,8.10
2011,10,19,02,18,8.10
2011,10,19,02,19,8.10
2011,10,19,02,20,8.10
2011,10,19,02,21,8.10
2011,10,19,02,22,8.10
2011,10,19,02,23,8.10
2011,10,19,02,24,8.10
2011,10,19,02,25,8.10
2011,10,19,02,26,8.10
2011,10,19,02,27,8.10
2011,10,19,02,28,8.10
2011,10,19,02,29,8.10
2011,10,19,02,30,8.20
2011,10,19,02,31,8.30
2011,10,19,02,32,8.30
2011,10,19,02,33,8.30
2011,10,19,02,34,8.40
2011,10,19,02,35,8.40
2011,10,19,02,36,8.40
2011,10,19,02,37,8.40
2011,10,19,02,38,8.50
2011,10,19,02,39,8.50
2011,10,19,02,40,8.60
2011,10,19,02,41,8.60
2011,10,19,02,42,8.60
2011,10,19,02,43,8.60
2011,10,19,02,44,8.60
2011,10,19,02,45,8.60
2011,10,19,02,46,8.60
2011,10,19,02,47,8.60
2011,10,19,02,48,8.60
2011,10,19,02,49,8.60
2011,10,19,02,50,8.60
2011,10,19,02,51,8.60
2011,10,19,02,52,8.60
2011,10,19,02,53,8.70
2011,10,19,02,54,8.70
2011,10,19,02,55,8.70
2011,10,19,02,56,8.70
2011,10,19,02,57,8.70
2011,10,19,02,58,8.70
2011,10,19,02,59,8.80
2011,10,19,03,00,8.80
2011,10,19,03,01,8.70
2011,10,19,03,02,8.70
2011,10,19,03,03,8.70
2011,10,19,03,04,8.70
2011,10,19,03,05,8.70
2011,10,19,03,06,8.80
2011,10,19,03,07,8.80
2011,10,19,03,08,8.80
2011,10,19,03,09,8.80
2011,10,19,03,10,8.80
2011,10,19,03,11,8.80
2011,10,19,03,12,8.80
2011,10,19,03,13,8.90
2011,10,19,03,14,8.90
2011,10,19,03,15,8.90
2011,10,19,03,16,8.90
2011,10,19,03,17,8.90
2011,10,19,03,18,8.90
2011,10,19,03,19,8.90
2011,10,19,03,20,8.90
2011,10,19,03,21,8.90
2011,10,19,03,22,8.90
2011,10,19,03,23,8.80
2011,10,19,03,24,8.80
2011,10,19,03,25,8.80
2011,10,19,03,26,8.80
2011,10,19,03,27,8.80
2011,10,19,03,28,8.80
2011,10,19,03,29,8.80
2011,10,19,03,30,8.90
2011,10,19,03,34,8.80
2011,10,19,03,35,8.80
2011,10,19,03,36,8.80
2011,10,19,03,37,8.80
2011,10,19,03,38,8.80
2011,10,19,03,39,8.80
2011,10,19,03,40,8.70
2011,10,19,03,41,8.70
2011,10,19,03,42,8.70
2011,10,19,03,43,8.60
2011,10,19,03,44,8.60
2011,10,19,03,45,8.60
2011,10,19,03,46,8.60
2011,10,19,03,47,8.50
2011,10,19,03,48,8.50
2011,10,19,03,49,8.50
2011,10,19,03,50,8.40
2011,10,19,03,51,8.40
2011,10,19,03,52,8.40
2011,10,19,03,53,8.40
2011,10,19,03,54,8.40
2011,10,19,03,55,8.50
2011,10,19,03,56,8.50
2011,10,19,03,57,8.50
2011,10,19,03,58,8.50
2011,10,19,03,59,8.50
2011,10,19,04,00,8.50
2011,10,19,04,01,8.50
2011,10,19,04,02,8.50
2011,10,19,04,03,8.60
2011,10,19,04,04,8.60
2011,10,19,04,05,8.60
2011,10,19,04,06,8.50
2011,10,19,04,07,8.50
2011,10,19,04,08,8.50
2011,10,19,04,09,8.40
2011,10,19,04,10,8.40
2011,10,19,04,11,8.40
2011,10,19,04,12,8.40
2011,10,19,04,13,8.30
2011,10,19,04,14,8.30
2011,10,19,04,15,8.20
2011,10,19,04,16,8.20
2011,10,19,04,17,8.20
2011,10,19,04,18,8.20
2011,10,19,04,19,8.20
2011,10,19,04,20,8.20
2011,10,19,04,21,8.20
2011,10,19,04,22,8.20
2011,10,19,04,23,8.20
2011,10,19,04,24,8.20
2011,10,19,04,25,8.20
2011,10,19,04,26,8.20
2011,10,19,04,27,8.20
2011,10,19,04,28,8.20
2011,10,19,04,29,8.20
2011,10,19,10,41,11.90
2011,10,19,10,42,11.90
2011,10,19,10,43,11.90
2011,10,19,10,44,11.90
2011,10,19,10,45,12.00
2011,10,19,10,46,12.00
2011,10,19,10,47,12.00
2011,10,19,10,48,12.10
2011,10,19,10,49,12.10
2011,10,19,10,50,12.10
2011,10,19,10,51,12.10
2011,10,19,10,52,12.10
2011,10,19,10,53,12.10
2011,10,19,10,54,12.10
2011,10,19,10,55,12.20
2011,10,19,10,56,12.20
2011,10,19,10,57,12.20
2011,10,19,10,58,12.30
2011,10,19,10,59,12.40
2011,10,19,11,00,12.50
2011,10,19,11,01,12.60
2011,10,19,11,02,12.60
2011,10,19,11,03,12.70
2011,10,19,11,04,12.70
2011,10,19,11,05,12.70
2011,10,19,11,06,12.60
2011,10,19,11,07,12.60
2011,10,19,11,08,12.50
2011,10,19,11,09,12.50
2011,10,19,11,10,12.50
2011,10,19,11,11,12.50
2011,10,19,11,12,12.50
2011,10,19,11,13,12.60
2011,10,19,11,14,12.50
2011,10,19,11,15,12.50
2011,10,19,11,16,12.50
2011,10,19,11,17,12.60
2011,10,19,11,18,12.60
2011,10,19,11,19,12.60
2011,10,19,11,20,12.60
2011,10,19,11,21,12.60
2011,10,19,11,22,12.70
2011,10,19,11,23,12.70
2011,10,19,11,24,12.70
2011,10,19,11,25,12.70
2011,10,19,11,26,12.80
2011,10,19,11,27,12.80
2011,10,19,11,28,12.80
2011,10,19,11,29,12.70
2011,10,19,11,30,12.80
2011,10,19,11,31,12.70
2011,10,19,11,32,12.70
2011,10,19,11,33,12.70
2011,10,19,11,34,12.60
2011,10,19,11,35,12.60
2011,10,19,11,36,12.50
2011,10,19,11,37,12.50
2011,10,19,11,38,12.40
2011,10,19,11,39,12.40
2011,10,19,11,40,12.50
2011,10,19,11,41,12.50
2011,10,19,11,42,12.50
2011,10,19,11,43,12.60
2011,10,19,11,44,12.60
2011,10,19,11,45,12.60
2011,10,19,11,46,12.60
2011,10,19,11,47,12.70
2011,10,19,11,48,12.70
2011,10,19,11,49,12.70
2011,10,19,11,50,12.80
2011,10,19,11,51,12.80
2011,10,19,11,52,12.80
2011,10,19,11,53,12.90
2011,10,19,11,54,12.90
2011,10,19,11,55,13.00
2011,10,19,11,56,13.10
2011,10,19,11,57,13.10
2011,10,19,11,58,13.20
2011,10,19,11,59,13.30
2011,10,19,12,00,13.30
2011,10,19,12,01,13.40
2011,10,19,12,02,13.40
2011,10,19,12,03,13.50
2011,10,19,12,04,13.50
2011,10,19,12,05,13.40
2011,10,19,12,06,13.40
2011,10,19,12,07,13.40
2011,10,19,12,08,13.30
2011,10,19,12,09,13.30
2011,10,19,12,10,13.30
2011,10,19,12,11,13.30
2011,10,19,12,12,13.30
2011,10,19,12,13,13.20
2011,10,19,12,14,13.20
2011,10,19,12,15,13.20
2011,10,19,12,16,13.10
2011,10,19,12,17,13.10
2011,10,19,12,18,13.10
2011,10,19,12,19,13.10
2011,10,19,12,20,13.10
2011,10,19,12,21,13.10
2011,10,19,12,22,13.10
2011,10,19,12,23,13.00
2011,10,19,12,24,13.00
2011,10,19,12,25,13.00
2011,10,19,12,26,13.10
2011,10,19,12,27,13.10
2011,10,19,12,28,13.10
2011,10,19,12,29,13.20
2011,10,19,12,30,13.30
2011,10,19,12,31,13.30
2011,10,19,12,32,13.30
2011,10,19,12,33,13.30
2011,10,19,12,34,13.30
2011,10,19,12,35,13.10
2011,10,19,12,36,12.90
2011,10,19,12,37,12.80
2011,10,19,12,38,12.70
2011,10,19,12,39,12.70
2011,10,19,12,40,12.60
2011,10,19,12,41,12.60
2011,10,19,12,42,12.70
2011,10,19,12,43,12.70
2011,10,19,12,44,12.70
2011,10,19,12,45,12.70
2011,10,19,12,46,12.70
2011,10,19,12,47,12.70
2011,10,19,12,48,12.70
2011,10,19,12,49,12.70
2011,10,19,12,50,12.70
2011,10,19,12,51,12.70
2011,10,19,12,52,12.70
2011,10,19,12,53,12.70
2011,10,19,12,54,12.70
2011,10,19,12,55,12.80
2011,10,19,12,56,12.80
2011,10,19,12,57,12.90
2011,10,19,12,58,12.90
2011,10,19,12,59,12.90
2011,10,19,13,00,12.90
2011,10,19,13,01,12.90
2011,10,19,13,02,12.90
2011,10,19,13,03,12.90
2011,10,19,13,04,13.00
2011,10,19,13,05,13.00
2011,10,19,13,06,13.00
2011,10,19,13,07,13.00
2011,10,19,13,08,13.00
2011,10,19,13,09,13.10
2011,10,19,13,10,13.10
2011,10,19,13,11,13.10
2011,10,19,13,12,13.20
2011,10,19,13,13,13.20
2011,10,19,13,14,13.30
2011,10,19,13,15,13.40
2011,10,19,13,16,13.50
2011,10,19,13,17,13.40
2011,10,19,13,18,13.40
2011,10,19,13,19,13.40
2011,10,19,13,20,13.50
2011,10,19,13,21,13.60
2011,10,19,13,22,13.60
2011,10,19,13,23,13.70
2011,10,19,13,24,13.70
2011,10,19,13,25,13.70
2011,10,19,13,26,13.60
2011,10,19,13,27,13.60
2011,10,19,13,28,13.60
2011,10,19,13,29,13.60
2011,10,19,13,30,13.70
2011,10,19,13,31,13.70
2011,10,19,13,32,13.70
2011,10,19,13,33,13.60
2011,10,19,13,34,13.60
2011,10,19,13,35,13.60
2011,10,19,13,36,13.60
2011,10,19,13,37,13.50
2011,10,19,13,38,13.40
2011,10,19,13,39,13.30
2011,10,19,13,40,13.30
2011,10,19,13,41,13.30
2011,10,19,13,42,13.20
2011,10,19,13,43,13.20
2011,10,19,13,44,13.20
2011,10,19,13,45,13.20
2011,10,19,13,46,13.20
2011,10,19,13,47,13.20
2011,10,19,13,48,13.20
2011,10,19,13,49,13.20
2011,10,19,13,50,13.30
2011,10,19,13,51,13.30
2011,10,19,13,52,13.30
2011,10,19,13,53,13.30
2011,10,19,13,54,13.40
2011,10,19,13,55,13.40
2011,10,19,13,56,13.50
2011,10,19,13,57,13.50
2011,10,19,13,58,13.60
2011,10,19,13,59,13.50
2011,10,19,14,00,13.50
2011,10,19,14,01,13.50
2011,10,19,14,02,13.50
2011,10,19,14,03,13.60
2011,10,19,14,04,13.60
2011,10,19,14,05,13.70
2011,10,19,14,06,13.70
2011,10,19,14,07,13.70
2011,10,19,14,08,13.70
2011,10,19,14,09,13.70
2011,10,19,14,10,13.70
2011,10,19,14,11,13.70
2011,10,19,14,12,13.70
2011,10,19,14,13,13.70
2011,10,19,14,14,13.80
2011,10,19,14,15,13.80
2011,10,19,14,16,13.80
2011,10,19,14,17,13.90
2011,10,19,14,18,13.90
2011,10,19,14,19,13.90
2011,10,19,14,20,13.80
2011,10,19,14,21,13.80
2011,10,19,14,22,13.80
2011,10,19,14,23,13.80
2011,10,19,14,24,13.70
2011,10,19,14,25,13.80
2011,10,19,14,26,13.70
2011,10,19,14,27,13.70
2011,10,19,14,28,13.70
2011,10,19,14,29,13.70
2011,10,19,14,30,13.70
2011,10,19,14,31,13.70
2011,10,19,14,32,13.70
2011,10,19,14,33,13.70
2011,10,19,14,34,13.70
2011,10,19,14,35,13.70
2011,10,19,14,36,13.70
2011,10,19,14,37,13.70
2011,10,19,14,38,13.70
2011,10,19,14,39,13.70
2011,10,19,14,40,13.80
2011,10,19,14,41,13.80
2011,10,19,14,42,13.70
2011,10,19,14,43,13.70
2011,10,19,14,44,13.70
2011,10,19,14,45,13.70
2011,10,19,14,46,13.80
2011,10,19,14,47,13.80
2011,10,19,14,48,13.80
2011,10,19,14,49,13.90
2011,10,19,14,50,13.90
2011,10,19,14,51,13.90
2011,10,19,14,52,13.90
2011,10,19,14,53,13.90
2011,10,19,14,54,13.90
2011,10,19,14,55,13.90
2011,10,19,14,56,13.90
2011,10,19,14,57,13.90
2011,10,19,14,58,13.90
2011,10,19,14,59,13.90
2011,10,19,15,00,13.90
2011,10,19,15,01,14.00
2011,10,19,15,02,14.10
2011,10,19,15,03,14.10
2011,10,19,15,04,14.20
2011,10,19,15,05,14.10
2011,10,19,15,06,14.10
2011,10,19,15,07,14.10
2011,10,19,15,08,14.10
2011,10,19,15,09,14.10
2011,10,19,15,10,14.10
2011,10,19,15,11,14.10
2011,10,19,15,12,14.00
2011,10,19,15,13,14.00
2011,10,19,15,14,14.00
2011,10,19,15,15,14.00
2011,10,19,15,16,14.00
2011,10,19,15,17,14.10
2011,10,19,15,18,14.10
2011,10,19,15,19,14.10
2011,10,19,15,20,14.20
2011,10,19,15,21,14.20
2011,10,19,15,22,14.30
2011,10,19,15,23,14.30
2011,10,19,15,24,14.40
2011,10,19,15,25,14.40
2011,10,19,15,26,14.50
2011,10,19,15,27,14.60
2011,10,19,15,28,14.60
2011,10,19,15,29,14.70
2011,10,19,15,30,14.70
2011,10,19,15,31,14.70
2011,10,19,15,32,14.80
2011,10,19,15,33,14.90
2011,10,19,15,34,15.00
2011,10,19,15,35,15.00
2011,10,19,15,36,15.00
2011,10,19,15,37,15.00
2011,10,19,15,38,15.00
2011,10,19,15,39,15.00
2011,10,19,15,40,15.00
2011,10,19,15,41,15.00
2011,10,19,15,42,15.00
2011,10,19,15,43,15.00
2011,10,19,15,44,15.00
2011,10,19,15,45,15.00
2011,10,19,15,46,15.00
2011,10,19,15,47,15.00
2011,10,19,15,48,15.00
2011,10,19,15,49,15.00
2011,10,19,15,50,15.00
2011,10,19,15,51,15.00
2011,10,19,15,52,15.00
2011,10,19,15,53,15.00
2011,10,19,15,54,15.00
2011,10,19,15,55,15.00
2011,10,19,15,56,15.00
2011,10,19,15,57,15.00
2011,10,19,15,58,15.00
2011,10,19,15,59,15.00
2011,10,19,16,00,15.00
2011,10,19,16,01,15.00
2011,10,19,16,02,15.10
2011,10,19,16,03,15.10
2011,10,19,16,04,15.20
2011,10,19,16,05,15.20
2011,10,19,16,06,15.20
2011,10,19,16,07,15.20
2011,10,19,16,08,15.20
2011,10,19,16,09,15.30
2011,10,19,16,10,15.30
2011,10,19,16,11,15.30
2011,10,19,16,12,15.30
2011,10,19,16,13,15.30
2011,10,19,16,14,15.20
2011,10,19,16,15,15.20
2011,10,19,16,16,15.10
2011,10,19,16,17,15.00
2011,10,19,16,18,15.00
2011,10,19,16,19,15.00
2011,10,19,16,20,15.00
2011,10,19,16,21,15.10
2011,10,19,16,22,15.20
2011,10,19,16,23,15.20
2011,10,19,16,24,15.20
2011,10,19,16,25,15.30
2011,10,19,16,26,15.30
2011,10,19,16,27,15.30
2011,10,19,16,28,15.30
2011,10,19,16,29,15.30
2011,10,19,16,30,15.30
2011,10,19,16,31,15.30
2011,10,19,16,32,15.20
2011,10,19,16,33,15.20
2011,10,19,16,34,15.20
2011,10,19,16,35,15.10
2011,10,19,16,36,15.00
2011,10,19,16,37,15.00
2011,10,19,16,38,15.00
2011,10,19,16,39,15.00
2011,10,19,16,40,15.00
2011,10,19,16,41,15.00
2011,10,19,16,42,14.90
2011,10,19,16,43,14.80
2011,10,19,16,44,14.70
2011,10,19,16,45,14.60
2011,10,19,16,46,14.50
2011,10,19,16,47,14.50
2011,10,19,16,48,14.40
2011,10,19,16,49,14.40
2011,10,19,16,50,14.30
2011,10,19,16,51,14.30
2011,10,19,16,52,14.30
2011,10,19,16,53,14.30
2011,10,19,16,54,14.30
2011,10,19,16,55,14.30
2011,10,19,16,56,14.30
2011,10,19,16,57,14.30
2011,10,19,16,58,14.30
2011,10,19,16,59,14.30
2011,10,19,17,00,14.30
2011,10,19,17,01,14.30
2011,10,19,17,02,14.30
2011,10,19,17,03,14.30
2011,10,19,17,04,14.30
2011,10,19,17,05,14.30
2011,10,19,17,06,14.30
2011,10,19,17,07,14.30
2011,10,19,17,08,14.30
2011,10,19,17,09,14.30
2011,10,19,17,10,14.30
2011,10,19,17,11,14.30
2011,10,19,17,12,14.30
2011,10,19,17,13,14.30
2011,10,19,17,14,14.30
2011,10,19,17,15,14.40
2011,10,19,17,16,14.40
2011,10,19,17,17,14.40
2011,10,19,17,18,14.40
2011,10,19,17,19,14.40
2011,10,19,17,20,14.50
2011,10,19,17,21,14.50
2011,10,19,17,22,14.50
2011,10,19,17,23,14.50
2011,10,19,17,24,14.50
2011,10,19,17,25,14.60
2011,10,19,17,26,14.60
2011,10,19,17,27,14.60
2011,10,19,17,28,14.60
2011,10,19,17,29,14.60
2011,10,19,17,30,14.60
2011,10,19,17,31,14.60
2011,10,19,17,32,14.60
2011,10,19,17,33,14.50
2011,10,19,17,34,14.50
2011,10,19,17,35,14.40
2011,10,19,17,36,14.40
2011,10,19,17,37,14.30
2011,10,19,17,38,14.30
2011,10,19,17,39,14.30
2011,10,19,17,40,14.20
2011,10,19,17,41,14.20
2011,10,19,17,42,14.10
2011,10,19,17,43,14.10
2011,10,19,17,44,14.10
2011,10,19,17,45,14.10
2011,10,19,17,46,14.10
2011,10,19,17,47,14.10
2011,10,19,17,48,14.10
2011,10,19,17,49,14.10
2011,10,19,17,50,14.20
2011,10,19,17,51,14.20
2011,10,19,17,52,14.20
2011,10,19,17,53,14.20
2011,10,19,17,54,14.20
2011,10,19,17,55,14.20
2011,10,19,17,56,14.20
2011,10,19,17,57,14.20
2011,10,19,17,58,14.20
2011,10,19,17,59,14.20
2011,10,19,18,00,14.20
2011,10,19,18,01,14.20
2011,10,19,18,02,14.20
2011,10,19,18,03,14.20
2011,10,19,18,04,14.20
2011,10,19,18,05,14.20
2011,10,19,18,06,14.20
2011,10,19,18,07,14.20
2011,10,19,18,08,14.20
2011,10,19,18,09,14.20
2011,10,19,18,10,14.20
2011,10,19,18,11,14.20
2011,10,19,18,12,14.20
2011,10,19,18,13,14.20
2011,10,19,18,14,14.20
2011,10,19,18,15,14.20
2011,10,19,18,16,14.20
2011,10,19,18,17,14.20
2011,10,19,18,18,14.10
2011,10,19,18,19,14.10
2011,10,19,18,20,14.10
2011,10,19,18,21,14.10
2011,10,19,18,22,14.10
2011,10,19,18,23,14.10
2011,10,19,18,24,14.10
2011,10,19,18,25,14.10
2011,10,19,18,26,14.10
2011,10,19,18,27,14.10
2011,10,19,18,28,14.10
2011,10,19,18,29,14.10
2011,10,19,18,30,14.10
2011,10,19,18,31,14.10
2011,10,19,18,32,14.10
2011,10,19,18,33,14.20
2011,10,19,18,34,14.10
2011,10,19,18,35,14.20
2011,10,19,18,36,14.20
2011,10,19,18,37,14.20
2011,10,19,18,38,14.20
2011,10,19,18,39,14.20
2011,10,19,18,40,14.20
2011,10,19,18,41,14.20
2011,10,19,18,42,14.20
2011,10,19,18,43,14.20
2011,10,19,18,44,14.20
2011,10,19,18,45,14.10
2011,10,19,18,46,14.10
2011,10,19,18,47,14.20
2011,10,19,18,48,14.20
2011,10,19,18,49,14.10
2011,10,19,18,50,14.10
2011,10,19,18,51,14.10
2011,10,19,18,52,14.10
2011,10,19,18,53,14.20
2011,10,19,18,54,14.20
2011,10,19,18,55,14.20
2011,10,19,18,56,14.20
2011,10,19,18,57,14.20
2011,10,19,18,58,14.20
2011,10,19,18,59,14.20
2011,10,19,19,00,14.20
2011,10,19,19,01,14.20
2011,10,19,19,02,14.20
2011,10,19,19,03,14.20
2011,10,19,19,04,14.20
2011,10,19,19,05,14.20
2011,10,19,19,06,14.20
2011,10,19,19,07,14.10
2011,10,19,19,08,14.10
2011,10,19,19,09,14.10
2011,10,19,19,10,14.10
2011,10,19,19,11,14.10
2011,10,19,19,12,14.10
2011,10,19,19,13,14.10
2011,10,19,19,14,14.10
2011,10,19,19,15,14.10
2011,10,19,19,16,14.20
2011,10,19,19,17,14.20
2011,10,19,19,18,14.20
2011,10,19,19,19,14.10
2011,10,19,19,20,14.10
2011,10,19,19,21,14.10
2011,10,19,19,22,14.10
2011,10,19,19,23,14.10
2011,10,19,19,24,14.10
2011,10,19,19,25,14.10
2011,10,19,19,26,14.10
2011,10,19,19,27,14.00
2011,10,19,19,28,14.00
2011,10,19,19,29,14.00
2011,10,19,19,30,14.00
2011,10,19,19,31,14.00
2011,10,19,19,32,14.00
2011,10,19,19,33,14.00
2011,10,19,19,34,14.10
2011,10,19,19,35,14.10
2011,10,19,19,36,14.10
2011,10,19,19,37,14.10
2011,10,19,19,38,14.10
2011,10,19,19,39,14.10
2011,10,19,19,40,14.10
2011,10,19,19,41,14.20
2011,10,19,19,42,14.20
2011,10,19,19,43,14.20
2011,10,19,19,44,14.20
2011,10,19,19,45,14.20
2011,10,19,19,46,14.20
2011,10,19,19,47,14.10
2011,10,19,19,48,14.10
2011,10,19,19,49,14.10
2011,10,19,19,50,14.10
2011,10,19,19,51,14.10
2011,10,19,19,52,14.00
2011,10,19,19,53,14.00
2011,10,19,19,54,14.00
2011,10,19,19,55,14.00
2011,10,19,19,56,14.00
2011,10,19,19,57,14.00
2011,10,19,19,58,14.00
2011,10,19,19,59,14.00
2011,10,19,20,00,14.00
2011,10,19,20,01,13.90
2011,10,19,20,02,13.90
2011,10,19,20,03,13.90
2011,10,19,20,04,13.90
2011,10,19,20,05,13.90
2011,10,19,20,06,13.90
2011,10,19,20,07,13.90
2011,10,19,20,08,13.90
2011,10,19,20,09,13.80
2011,10,19,20,10,13.80
2011,10,19,20,11,13.80
2011,10,19,20,12,13.80
2011,10,19,20,13,13.80
2011,10,19,20,14,13.80
2011,10,19,20,15,13.80
2011,10,19,20,16,13.80
2011,10,19,20,17,13.80
2011,10,19,20,18,13.80
2011,10,19,20,19,13.70
2011,10,19,20,20,13.70
2011,10,19,20,21,13.70
2011,10,19,20,22,13.70
2011,10,19,20,23,13.60
2011,10,19,20,24,13.50
2011,10,19,20,25,13.50
2011,10,19,20,26,13.40
2011,10,19,20,27,13.40
2011,10,19,20,28,13.30
2011,10,19,20,29,13.30
2011,10,19,20,30,13.20
2011,10,19,20,31,13.20
2011,10,19,20,32,13.10
2011,10,19,20,33,13.10
2011,10,19,20,34,13.00
2011,10,19,20,35,13.00
2011,10,19,20,36,12.90
2011,10,19,20,37,12.80
2011,10,19,20,38,12.80
2011,10,19,20,39,12.70
2011,10,19,20,40,12.70
2011,10,19,20,41,12.70
2011,10,19,20,42,12.70
2011,10,19,20,43,12.70
2011,10,19,20,44,12.60
2011,10,19,20,45,12.60
2011,10,19,20,46,12.60
2011,10,19,20,47,12.60
2011,10,19,20,48,12.50
2011,10,19,20,49,12.50
2011,10,19,20,50,12.40
2011,10,19,20,51,12.40
2011,10,19,20,52,12.40
2011,10,19,20,53,12.30
2011,10,19,20,54,12.30
2011,10,19,20,55,12.30
2011,10,19,20,56,12.20
2011,10,19,20,57,12.20
2011,10,19,20,58,12.20
2011,10,19,20,59,12.20
2011,10,19,21,00,12.10
2011,10,19,21,01,12.10
2011,10,19,21,02,12.10
2011,10,19,21,03,12.10
2011,10,19,21,04,12.10
2011,10,19,21,05,12.00
2011,10,19,21,06,12.00
2011,10,19,21,07,12.00
2011,10,19,21,08,12.00
2011,10,19,21,09,11.90
2011,10,19,21,10,11.90
2011,10,19,21,11,11.90
2011,10,19,21,12,11.90
2011,10,19,21,13,11.90
2011,10,19,21,14,11.90
2011,10,19,21,15,11.80
2011,10,19,21,16,11.80
2011,10,19,21,17,11.80
2011,10,19,21,18,11.80
2011,10,19,21,19,11.80
2011,10,19,21,20,11.80
2011,10,19,21,21,11.80
2011,10,19,21,22,11.70
2011,10,19,21,23,11.70
2011,10,19,21,24,11.70
2011,10,19,21,25,11.70
2011,10,19,21,26,11.70
2011,10,19,21,27,11.70
2011,10,19,21,28,11.70
2011,10,19,21,29,11.70
2011,10,19,21,30,11.60
2011,10,19,21,31,11.60
2011,10,19,21,32,11.60
2011,10,19,21,33,11.60
2011,10,19,21,34,11.60
2011,10,19,21,35,11.50
2011,10,19,21,36,11.50
2011,10,19,21,37,11.50
2011,10,19,21,38,11.50
2011,10,19,21,39,11.50
2011,10,19,21,40,11.40
2011,10,19,21,41,11.40
2011,10,19,21,42,11.40
2011,10,19,21,43,11.40
2011,10,19,21,44,11.40
2011,10,19,21,45,11.40
2011,10,19,21,46,11.30
2011,10,19,21,47,11.30
2011,10,19,21,48,11.30
2011,10,19,21,49,11.30
2011,10,19,21,50,11.30
2011,10,19,21,51,11.30
2011,10,19,21,52,11.30
2011,10,19,21,53,11.30
2011,10,19,21,54,11.30
2011,10,19,21,55,11.30
2011,10,19,21,56,11.30
2011,10,19,21,57,11.30
2011,10,19,21,58,11.30
2011,10,19,21,59,11.30
2011,10,19,22,00,11.20
2011,10,19,22,01,11.20
2011,10,19,22,02,11.20
2011,10,19,22,03,11.20
2011,10,19,22,04,11.20
2011,10,19,22,05,11.20
2011,10,19,22,06,11.20
2011,10,19,22,07,11.20
2011,10,19,22,08,11.20
2011,10,19,22,09,11.20
2011,10,19,22,10,11.20
2011,10,19,22,11,11.20
2011,10,19,22,12,11.20
2011,10,19,22,13,11.20
2011,10,19,22,14,11.20
2011,10,19,22,15,11.20
2011,10,19,22,16,11.20
2011,10,19,22,17,11.10
2011,10,19,22,18,11.10
2011,10,19,22,19,11.10
2011,10,19,22,20,11.10
2011,10,19,22,21,11.10
2011,10,19,22,22,11.10
2011,10,19,22,23,11.10
2011,10,19,22,24,11.10
2011,10,19,22,25,11.10
2011,10,19,22,26,11.10
2011,10,19,22,27,11.00
2011,10,19,22,28,11.00
2011,10,19,22,29,11.00
2011,10,19,22,30,11.00
2011,10,19,22,31,11.00
2011,10,19,22,32,11.00
2011,10,19,22,33,11.00
2011,10,19,22,34,11.00
2011,10,19,22,35,11.00
2011,10,19,22,36,10.90
2011,10,19,22,37,10.90
2011,10,19,22,38,10.90
2011,10,19,22,39,10.90
2011,10,19,22,40,10.90
2011,10,19,22,41,10.90
2011,10,19,22,42,10.90
2011,10,19,22,43,10.90
2011,10,19,22,44,10.90
2011,10,19,22,45,10.90
2011,10,19,22,46,10.90
2011,10,19,22,47,10.90
2011,10,19,22,48,10.90
2011,10,19,22,49,10.90
2011,10,19,22,50,10.90
2011,10,19,22,51,10.90
2011,10,19,22,52,10.90
2011,10,19,22,53,10.90
2011,10,19,22,54,10.90
2011,10,19,22,55,10.80
2011,10,19,22,56,10.80
2011,10,19,22,57,10.80
2011,10,19,22,58,10.80
2011,10,19,22,59,10.80
2011,10,19,23,00,10.80
2011,10,19,23,01,10.80
2011,10,19,23,02,10.80
2011,10,19,23,03,10.80
2011,10,19,23,04,10.80
2011,10,19,23,05,10.80
2011,10,19,23,06,10.80
2011,10,19,23,07,10.80
2011,10,19,23,08,10.80
2011,10,19,23,09,10.80
2011,10,19,23,10,10.80
2011,10,19,23,11,10.80
2011,10,19,23,12,10.80
2011,10,19,23,13,10.80
2011,10,19,23,14,10.80
2011,10,19,23,15,10.80
2011,10,19,23,16,10.80
2011,10,19,23,17,10.80
2011,10,19,23,18,10.80
2011,10,19,23,19,10.80
2011,10,19,23,20,10.80
2011,10,19,23,21,10.70
2011,10,19,23,22,10.70
2011,10,19,23,23,10.70
2011,10,19,23,24,10.70
2011,10,19,23,25,10.70
2011,10,19,23,26,10.70
2011,10,19,23,27,10.70
2011,10,19,23,28,10.70
2011,10,19,23,29,10.70
2011,10,19,23,30,10.70
2011,10,19,23,31,10.70
2011,10,19,23,32,10.70
2011,10,19,23,33,10.70
2011,10,19,23,34,10.70
2011,10,19,23,35,10.70
2011,10,19,23,36,10.70
2011,10,19,23,37,10.70
2011,10,19,23,38,10.70
2011,10,19,23,39,10.70
2011,10,19,23,40,10.70
2011,10,19,23,41,10.70
2011,10,19,23,42,10.70
2011,10,19,23,43,10.70
2011,10,19,23,44,10.70
2011,10,19,23,45,10.70